Groton, South Dakota, United States (57445)
Lat: 45.45N, Lon: 98.1W
Wx Zone: SDZ006
Local Info
Past Weather Observations for Saturday, August 30, 2014

NOTE: This archive is for the closest National Weather Service station to Groton. Information may differ from the station used for current weather conditions.

Click here for Long-term Archive

Time Weather Temperature Dewpoint Humidity Pressure Winds Precip Visibility
23:53
Clear
61°F / 16°C 61°F / 16°C 100% 29.71 in
(1006 mb)
SE 10.4 mph
(SE 17 kph)
- 10SM
22:53
Clear
61°F / 16°C 59°F / 15°C 94% 29.74 in
(1007 mb)
SE 9.2 mph
(SE 15 kph)
- 10SM
21:53
Clear
61°F / 16°C 59°F / 15°C 94% 29.77 in
(1008 mb)
SE 10.4 mph
(SE 17 kph)
- 10SM
20:53
Clear
61°F / 16°C 59°F / 15°C 94% 29.74 in
(1007 mb)
SE 10.4 mph
(SE 17 kph)
- 10SM
19:53
Clear
61°F / 16°C 59°F / 15°C 94% 29.77 in
(1008 mb)
SE 8.1 mph
(SE 13 kph)
- 10SM
18:53
Clear
64°F / 18°C 61°F / 16°C 88% 29.8 in
(1009 mb)
SSE 5.8 mph
(SSE 9 kph)
- 10SM
17:53
Clear
70°F / 21°C 61°F / 16°C 73% 29.8 in
(1009 mb)
SSE 9.2 mph
(SSE 15 kph)
- 10SM
16:53
Clear
70°F / 21°C 57°F / 14°C 64% 29.8 in
(1009 mb)
SSE 10.4 mph
(SSE 17 kph)
- 10SM
15:53
Clear
70°F / 21°C 57°F / 14°C 64% 29.83 in
(1010 mb)
SE 4.6 mph
(SE 7 kph)
- 10SM
14:53
Mostly Cloudy
72°F / 22°C 59°F / 15°C 65% 29.86 in
(1011 mb)
SSE 8.1 mph
(SSE 13 kph)
- 10SM
13:53
Mostly Cloudy
68°F / 20°C 57°F / 14°C 69% 29.89 in
(1012 mb)
SE 5.8 mph
(SE 9 kph)
- 10SM
13:37
Partly Cloudy
68°F / 20°C 57°F / 14°C 69% 29.89 in
(1012 mb)
SE 4.6 mph
(SE 7 kph)
- 10SM
13:06
Mostly Cloudy
70°F / 21°C 57°F / 14°C 64% 29.89 in
(1012 mb)
Calm - 10SM
12:53
Partly Cloudy
66°F / 19°C 57°F / 14°C 73% 29.92 in
(1013 mb)
Calm - 10SM
12:33
Partly Cloudy
68°F / 20°C 57°F / 14°C 69% 29.92 in
(1013 mb)
SE 4.6 mph
(SE 7 kph)
- 10SM
12:23
Mostly Cloudy
66°F / 19°C 57°F / 14°C 73% 29.92 in
(1013 mb)
Variable 4.6 mph
(Variable 7 kph)
- 10SM
11:53
Partly Cloudy
68°F / 20°C 57°F / 14°C 69% 29.92 in
(1013 mb)
NE 5.8 mph
(NE 9 kph)
- 10SM
11:28
Mostly Cloudy
66°F / 19°C 57°F / 14°C 73% 29.92 in
(1013 mb)
N 6.9 mph
(N 11 kph)
- 10SM
10:53
Partly Cloudy
64°F / 18°C 55°F / 13°C 73% 29.95 in
(1014 mb)
E 4.6 mph
(E 7 kph)
- 10SM
10:51
Partly Cloudy
64°F / 18°C 55°F / 13°C 73% 29.95 in
(1014 mb)
Variable 3.5 mph
(Variable 6 kph)
- 10SM
10:14
Mostly Cloudy
63°F / 17°C 57°F / 14°C 83% 29.95 in
(1014 mb)
Variable 3.5 mph
(Variable 6 kph)
- 10SM
09:53
Partly Cloudy
61°F / 16°C 55°F / 13°C 83% 29.95 in
(1014 mb)
NE 4.6 mph
(NE 7 kph)
- 10SM
08:53
Overcast
59°F / 15°C 55°F / 13°C 88% 29.95 in
(1014 mb)
N 9.2 mph
(N 15 kph)
- 10SM
08:29
Overcast
59°F / 15°C 55°F / 13°C 88% 29.95 in
(1014 mb)
N 6.9 mph
(N 11 kph)
- 10SM
07:53
Overcast
57°F / 14°C 55°F / 13°C 94% 29.95 in
(1014 mb)
NNW 8.1 mph
(NNW 13 kph)
- 10SM
07:45
Overcast
57°F / 14°C 55°F / 13°C 94% 29.95 in
(1014 mb)
NNW 6.9 mph
(NNW 11 kph)
- 10SM
07:00
Overcast
55°F / 13°C 55°F / 13°C 100% 29.95 in
(1014 mb)
N 8.1 mph
(N 13 kph)
- 10SM
06:53
Overcast
55°F / 13°C 55°F / 13°C 100% 29.95 in
(1014 mb)
N 9.2 mph
(N 15 kph)
- 10SM
06:45
Overcast
57°F / 14°C 55°F / 13°C 94% 29.95 in
(1014 mb)
NNW 10.4 mph
(NNW 17 kph)
- 10SM
06:34
Overcast
57°F / 14°C 55°F / 13°C 94% 29.95 in
(1014 mb)
NNW 10.4 mph
(NNW 17 kph)
- 10SM
06:23
Overcast
57°F / 14°C 55°F / 13°C 94% 29.95 in
(1014 mb)
NNW 10.4 mph
(NNW 17 kph)
- 10SM
05:53
Overcast
57°F / 14°C 55°F / 13°C 94% 29.95 in
(1014 mb)
NNW 8.1 mph
(NNW 13 kph)
- 10SM
04:53
Overcast
57°F / 14°C 55°F / 13°C 94% 29.95 in
(1014 mb)
N 9.2 mph
(N 15 kph)
- 10SM
03:53
Overcast
59°F / 15°C 55°F / 13°C 88% 29.95 in
(1014 mb)
N 10.4 mph
(N 17 kph)
- 10SM
03:41
Overcast
59°F / 15°C 55°F / 13°C 88% 29.95 in
(1014 mb)
N 11.5 mph
(N 19 kph)
- 10SM
02:53
Overcast
59°F / 15°C 55°F / 13°C 88% 29.95 in
(1014 mb)
N 11.5 mph
(N 19 kph)
- 10SM
01:53
Overcast
59°F / 15°C 55°F / 13°C 88% 29.95 in
(1014 mb)
NNW 8.1 mph
(NNW 13 kph)
- 10SM
00:53
Overcast
59°F / 15°C 55°F / 13°C 88% 29.92 in
(1013 mb)
N 10.4 mph
(N 17 kph)
- 10SM
00:29
Overcast
59°F / 15°C 55°F / 13°C 88% 29.92 in
(1013 mb)
N 9.2 mph
(N 15 kph)
- 10SM
Time Weather Temperature Dewpoint Humidity Pressure Winds Precip Visibility


Weather for websites

WeatherForYou.com, LLC is not responsible for any damages or problems caused by this service. Current weather conditions are obtained from the closest station including government and personal stations which may have varying degrees of accuracy. Weather forecasts are derived from the NOAA NDFD. Like all things, this site belongs to Jesus Christ... He just trusts me to maintain it. If you have any questions or comments email webmaster@weatherforyou.com

Copyright © 2014, WeatherForYou.com LLC. All rights reserved.